KF5CFW Weather Reports


time (UTC)temp
C
wind
direction
speed
KPH
gust
KPH
rain 1hr
cm
rain 24hr
cm
rain mn
cm
humidity
%
barometer
mb
20260905144548 30 222 0.0 1.6 0.00 0.00 0.00 57 1013.0
20260905143043 30 217 0.0 1.6 0.00 0.00 0.00 52 1013.1
20260905141544 28 226 0.0 1.6 0.00 0.00 0.00 44 1013.1
20260905140034 28 226 0.0 1.6 0.00 0.00 0.00 35 1013.0
20260905134533 27 253 0.0 1.6 0.00 0.00 0.00 27 1012.9
20260905133025 26 253 0.0 1.6 0.00 0.00 0.00 10 1012.8
20260905131540 26 249 0.0 0.0 0.00 0.00 0.00 1 1012.7
20260905130017 26 249 0.0 1.6 0.00 0.00 0.00 1 1012.4
20260905124533 25 249 0.0 0.0 0.00 0.00 0.00 1 1012.2
20260905123013 25 248 0.0 0.0 0.00 0.00 0.00 1 1012.1
20260905121518 25 249 0.0 0.0 0.00 0.00 0.00 1 1012.2
20260905120004 25 249 0.0 0.0 0.00 0.00 0.00 1 1012.2
20260905114600 25 249 0.0 0.0 0.00 0.00 0.00 1 1012.1
20260905113101 25 248 0.0 0.0 0.00 0.00 0.00 1 1012.1
20260905111556 25 249 0.0 0.0 0.00 0.00 0.00 1 1012.1
20260905110046 25 249 0.0 0.0 0.00 0.00 0.00 8 1012.0
20260905104545 25 249 0.0 0.0 0.00 0.00 0.00 15 1011.9
20260905103042 26 249 0.0 0.0 0.00 0.00 0.00 16 1012.1
20260905101542 26 249 0.0 0.0 0.00 0.00 0.00 18 1012.0
20260905100038 26 249 0.0 0.0 0.00 0.00 0.00 21 1011.8
20260905094536 26 249 0.0 0.0 0.00 0.00 0.00 26 1011.9
20260905093033 26 249 0.0 0.0 0.00 0.00 0.00 30 1011.7
20260905091536 27 249 0.0 0.0 0.00 0.00 0.00 32 1011.7
20260905090034 27 249 0.0 0.0 0.00 0.00 0.00 35 1011.7
20260905084553 27 249 0.0 0.0 0.00 0.00 0.00 38 1011.5
20260905083025 27 249 0.0 0.0 0.00 0.00 0.00 41 1011.4
20260905081524 27 249 0.0 0.0 0.00 0.00 0.00 44 1011.4
20260905080022 27 249 0.0 1.6 0.00 0.00 0.00 46 1011.4
20260905074521 28 249 0.0 0.0 0.00 0.00 0.00 49 1011.4
20260905073019 28 249 0.0 0.0 0.00 0.00 0.00 52 1011.5
20260905071519 28 249 0.0 0.0 0.00 0.00 0.00 53 1011.5
20260905070014 28 266 0.0 0.0 0.00 0.00 0.00 55 1011.7
20260905064512 28 266 0.0 1.6 0.00 0.00 0.00 56 1011.8
20260905063010 29 160 0.0 1.6 0.00 0.00 0.00 57 1011.8
20260905061508 29 165 0.0 1.6 0.00 0.00 0.00 58 1011.9
20260905060007 29 148 0.0 1.6 0.00 0.00 0.00 58 1011.9
20260905054505 30 153 0.0 1.6 0.00 0.00 0.00 58 1011.7
20260905053002 30 154 0.0 1.6 0.00 0.00 0.00 58 1011.6
20260905051501 30 165 0.0 1.6 0.00 0.00 0.00 58 1011.5
20260905050059 30 238 0.0 1.6 0.00 0.00 0.00 58 1011.4
20260905044555 30 142 0.0 1.6 0.00 0.00 0.00 57 1011.4
20260905043049 31 127 0.0 1.6 0.00 0.00 0.00 57 1011.5
20260905041545 31 153 0.0 1.6 0.00 0.00 0.00 57 1011.3
20260905040043 31 151 0.0 1.6 0.00 0.00 0.00 56 1011.5
20260905034545 31 166 0.0 3.2 0.00 0.00 0.00 55 1011.5
20260905033032 31 151 0.0 1.6 0.00 0.00 0.00 55 1011.5
20260905031533 32 159 0.0 1.6 0.00 0.00 0.00 54 1011.3
20260905030030 32 152 0.0 1.6 0.00 0.00 0.00 53 1011.3
20260905024519 32 136 0.0 1.6 0.00 0.00 0.00 51 1011.0
20260905023026 32 156 0.0 1.6 0.00 0.00 0.00 49 1010.8
20260905021512 32 134 0.0 1.6 0.00 0.00 0.00 48 1010.5
20260905020006 33 132 0.0 1.6 0.00 0.00 0.00 47 1010.3
20260905014501 33 151 0.0 0.0 0.00 0.00 0.00 46 1010.1
20260905013056 33 154 0.0 1.6 0.00 0.00 0.00 45 1009.9
20260905011557 33 166 0.0 1.6 0.00 0.00 0.00 45 1009.7
20260905010047 34 155 0.0 1.6 0.00 0.00 0.00 44 1009.7
20260905004550 34 160 0.0 1.6 0.00 0.00 0.00 44 1009.3
20260905003038 35 154 0.0 1.6 0.00 0.00 0.00 44 1009.1
20260905001533 35 148 0.0 1.6 0.00 0.00 0.00 44 1009.1
20260905000030 35 159 0.0 3.2 0.00 0.00 0.00 43 1009.0
20260904234537 36 165 0.0 1.6 0.00 0.00 0.00 41 1009.0
20260904233021 37 159 0.0 1.6 0.00 0.00 0.00 40 1008.9
20260904231518 37 97 0.0 1.6 0.00 0.00 0.00 38 1008.9
20260904230013 38 130 0.0 1.6 0.00 0.00 0.00 37 1009.0
20260904224508 39 153 0.0 1.6 0.00 0.00 0.00 35 1009.0
20260904223004 39 158 0.0 1.6 0.00 0.00 0.00 35 1009.2
20260904221607 38 163 0.0 1.6 0.00 0.00 0.00 34 1009.3
20260904220057 38 150 0.0 3.2 0.00 0.00 0.00 35 1009.4
20260904214551 38 146 0.0 1.6 0.00 0.00 0.00 36 1009.4
20260904213046 39 326 0.0 1.6 0.00 0.00 0.00 35 1009.6
20260904211541 40 79 0.0 1.6 0.00 0.00 0.00 35 1009.7
20260904210042 40 213 0.0 1.6 0.00 0.00 0.00 35 1009.9
20260904204532 39 159 0.0 3.2 0.00 0.00 0.00 36 1010.1
20260904203032 38 48 0.0 4.8 0.00 0.00 0.00 37 1010.2
20260904201524 39 129 0.0 4.8 0.00 0.00 0.00 36 1010.4
20260904200027 40 158 0.0 3.2 0.00 0.00 0.00 35 1010.7
20260904194516 38 148 0.0 3.2 0.00 0.00 0.00 37 1011.0
20260904193014 38 194 0.0 3.2 0.00 0.00 0.00 39 1011.2
20260904191506 37 231 0.0 3.2 0.00 0.00 0.00 40 1011.4
20260904190002 37 160 0.0 4.8 0.00 0.00 0.00 42 1011.5
20260904184605 37 82 0.0 1.6 0.00 0.00 0.00 44 1011.7
20260904183053 36 104 0.0 3.2 0.00 0.00 0.00 43 1011.9
20260904181549 37 153 0.0 1.6 0.00 0.00 0.00 45 1012.1
20260904180058 36 238 0.0 3.2 0.00 0.00 0.00 47 1012.3
20260904174541 35 214 0.0 3.2 0.00 0.00 0.00 49 1012.5
20260904173039 34 153 0.0 1.6 0.00 0.00 0.00 50 1012.7
20260904171529 34 160 0.0 1.6 0.00 0.00 0.00 48 1012.9
20260904170027 34 214 0.0 1.6 0.00 0.00 0.00 48 1013.1
20260904164522 34 251 0.0 1.6 0.00 0.00 0.00 48 1013.2
20260904163019 33 127 0.0 3.2 0.00 0.00 0.00 51 1013.2
20260904161512 33 118 0.0 6.4 0.00 0.00 0.00 56 1013.1
20260904160008 32 207 0.0 1.6 0.00 0.00 0.00 57 1013.2
20260904154503 32 193 0.0 1.6 0.00 0.00 0.00 57 1013.3
20260904153106 31 153 0.0 3.2 0.00 0.00 0.00 57 1013.2
20260904151555 30 210 0.0 3.2 0.00 0.00 0.00 55 1013.1
20260904150051 30 314 0.0 1.6 0.00 0.00 0.00 43 1013.2